Terug naar catalogus

COSMOS 516

ActiefMilitairLEO
NORAD 6154·PAYLOAD·🇷🇺 Russia

Gelanceerd Aug 21, 1972 vanaf Baikonur Cosmodrome

Loading…

Volgende Passages (komende 24 uur)

TLE

VersSource: Space-Track

Epoch: Sep 14, 2026, 15:00 UTC

1 06154U 72066A   26257.62507528 -.00000054  00000-0  34457-4 0  9991
2 06154  64.8119 319.4497 0054504  62.2183 298.4383 13.77815144720247

Volg COSMOS 516 in realtime met AllMySat

Download on the App Store